Other Surface Observations
Issued by NWS

Home | Current Version | Previous Version | Text Only | Print | Product List | Glossary On
Versions: 1 2 3 4 5 6 7 8 9 10 11 12 13 14 15 16 17 18 19 20 21 22 23 24 25 26 27 28 29 30 31 32 33 34 35 36 37 38 39 40 41 42 43 44 45 46 47 48 49 50
000
SXUS52 KTAE 300218
OSOTAE
OSOTAE
North Florida/South Alabama/Southwest Georgia Weather Roundup
National Weather Service Tallahassee Florida
1000 PM EDT FRI MAY 29 2015

Note: "fair" indicates few or no clouds below 12,000 feet with no
significant weather and/or obstructions to visibility.

!FLZ017-115-028-034-025-300300
...North Florida...

CITY           SKY/WX    TMP DP  RH WIND       PRES   REMARKS
TALLAHASSEE    PTCLDY    77  62  59 N3        30.09R
APALACHICOLA   CLEAR     74  64  71 CALM      30.08S
PERRY          CLEAR     73  66  77 CALM      30.10R
CROSS CITY       N/A     77  62  59 E6        30.08R
JACKSONVILLE   CLEAR     72  67  84 NE5       30.12S
$$

!FLZ112-006-005-002-011-300300
...Florida Panhandle...

CITY           SKY/WX    TMP DP  RH WIND       PRES   REMARKS
MARIANNA       CLEAR     77  67  71 CALM      30.09R
BONIFAY        FAIR      74  68  81 CALM      30.11R
PANAMA CITY NW FAIR      74  68  81 N3        30.09R
TYNDALL AFB    CLEAR     74  64  72 E2        30.08S
TYND DRONE APT FAIR      73  65  75 SE3       30.08R
DE FUNIAK SPR  FAIR      71  69  93 MISG      30.11R
EGLIN AFB      PTCLDY    78  67  69 S8        30.09S
DESTIN         CLEAR     80  66  62 S5        30.09S
HURLBURT       CLEAR     78  66  66 S7        30.08R
CRESTVIEW      PTCLDY    75  69  81 S3        30.11R
PENSACOLA      PTCLDY    78  70  76 S13       30.08R
$$

!ALZ063-066-300300
...South Alabama...

CITY           SKY/WX    TMP DP  RH WIND       PRES   REMARKS
DOTHAN         CLEAR     75  67  76 CALM      30.13S
OZARK CAIRNS   CLEAR     77  64  64 E3        30.10R
FT RUCKER HELI CLEAR     71  65  81 CALM      30.09R
RUCKER HELI 3  FAIR      73  65  77 E1        30.11S
RUCKER HELI 2  FAIR      74  66  76 CALM      30.09R
FLORALA APT    CLEAR     74  68  81 S3        30.12R
ANDALUSIA      CLEAR     78  64  61 CALM      30.10R
TROY           CLEAR     73  65  75 CALM      30.11R
EUFALA         FAIR      70  67  90 CALM      30.09S
MOBILE         PTCLDY    76  71  85 SE6       30.08S
$$

!GAZ120>161-300300
...Southwest and South Central Georgia...

CITY           SKY/WX    TMP DP  RH WIND       PRES   REMARKS
THOMASVILLE    FAIR      72  66  83 CALM      30.12R
BAINBRIDGE     CLEAR     77  70  78 CALM      30.10R
MOODY AFB      CLEAR     75  61  61 E6        30.11R
VALDOSTA       CLEAR     77  61  57 E6        30.12R
MOULTRIE       CLEAR     75  63  64 CALM      30.12R
BLAKELY        CLEAR     73  68  83 CALM      30.11R
ALBANY         CLEAR     76  60  57 CALM      30.12S
TIFTON         FAIR      74  59  60 E3        30.12R
FITZGERALD     MOCLDY    79  63  57 E7        30.15R
CORDELE        FAIR      74  68  81 CALM      30.13R
AMERICUS       FAIR      72  63  73 CALM      30.14R
HOMERVILLE     FAIR      77  68  73 E5        30.13R
$$

!GMZ750-755-770-775-300300
...Coastal and Buoy Obs...

STATION/POSITION TIME  TEMP    WIND        PRES    VSBY  WAVE
                       AIR SEA DIR/SP/G                  HT/PER
                 (UTC) (F)     (DEG/KT/KT) (MB)    (MI)  (FT/S)
KEATON BEACH     0200   78     360/  4/  6 1018.9R
CEDAR KEY        0200   82     100/ 16/ 18 1019.0R
C TOWER          0200   78      60/  4/  5 1018.6R
APALACHICOLA BUO 0150   79 81   60/  4/  4 1018.3R         2/ 6
PANAMA CITY BUOY 0150   78 81  110/  8/ 10 1018.7R         3/ 6
MOBILE BUOY      0150   80 81  130/ 14/ 16 1018.0F         3/ 5
ORANGE BCH AL BU 0150   80 80  140/ 12/ 14 1017.7R         2/ 5
$$



USA.gov is the U.S. government's official web portal to all federal, state and local government web resources and services.